Downstream station:
SHEF ID: HTWT2 E Fk Little Wichita Rv nr Henrie
STATION TYPE:
STAGE RIV-FLOW VOLTAGE BAT-LOAD
ft cfs volt volt
Ccp-Rev Ccp-Rev Ccp-Rev Ccp-Rev
(US/Central)
08/01 00:00 5.45 0 ---- 12.10
08/01 01:00 5.45 0 ---- 12.04
08/01 02:00 5.45 0 ---- 12.07
08/01 03:00 5.45 0 ---- 12.08
08/01 04:00 5.45 0 ---- 12.08
08/01 05:00 5.45 0 ---- 12.06
08/01 06:00 5.45 0 ---- 12.04
08/01 07:00 5.45 0 ---- 12.03
08/01 08:00 5.45 0 ---- 12.01
08/01 09:00 5.82 0 ---- 11.99
08/01 10:00 6.25 1 ---- 12.00
08/01 11:00 6.16 1 ---- 11.98
08/01 12:00 6.15 1 ---- 12.02
08/01 13:00 6.09 0 ---- 12.08
08/01 14:00 6.02 0 ---- 12.37
08/01 15:00 5.98 0 ---- 12.70
08/01 16:00 5.93 0 ---- 12.95
08/01 17:00 5.87 0 ---- 13.03
08/01 18:00 5.82 0 ---- 12.95
08/01 19:00 5.79 0 ---- 12.83
08/01 20:00 5.77 0 ---- 12.67
08/01 21:00 5.83 0 ---- 12.40
08/01 22:00 6.91 13 ---- 12.18
08/01 23:00 7.72 33 ---- 12.09